www.pogodaiklimat.ru

Погода и климат >> Архив погоды >> Филиппины >> Куби Пойнт


ПОГОДА в Куби Пойнт

  • Прогноз погоды в Куби Пойнт
  • Монитор погоды в Куби Пойнт

АРХИВ ПОГОДЫ в Куби Пойнт

Время (UTC), дата Ветер
(напр.,м/с)
 
Видим.   Явления Облачность Т
(С)
Тd
(С)
f
(%)
Тe
(С)
Тes
(С)
Комфортность P
(гПа)
Po
(гПа)
Тmin
(С)
Tmax
(С)
R
(мм)
R24
(мм)
S
(см)
00 10.09 СЗ 1 9000 м слаб. дождь {гроза} 10/4 540 м
[Sc As op]
+24.9 +23.6 92 +34 +34 очень
душно
1012.2 1010.0 +23.1 102
03 10.09 З 1 15 км мгла {дождь, туман} 9/1 540 м
[Sc diur, vesp Ac As]
+26.5 +24.0 86 +37 +45 очень
душно
1012.1 1009.9 0.0
06 10.09 ЮЗ 2 15 км мгла {дождь, туман} 9/3 540 м
[Sc diur, vesp Ac As]
+26.9 +22.8 78 +36 +40 очень
душно
1010.4 1008.2 0.0
09 10.09 ЮЗ 2 20 км мгла {туман} 9/4 540 м
[Cu Sc Ac As]
+26.6 +23.4 83 +36 +36 очень
душно
1010.5 1008.3
12 10.09 ЮВ 2 18 км мгла {туман} 9/1 540 м
[Cu hum Ac As]
+24.4 +23.0 92 +32 +32 очень
душно
1012.2 1010.0 +27.3
15 10.09 В 2 18 км мгла {туман} 9/5 540 м
[Sc diur, vesp Ac As]
+24.7 +23.3 92 +33 +33 очень
душно
1012.5 1010.3
18 10.09 В 2 16 км мгла {туман} 9/1 540 м
[Cu hum Ac As]
+24.8 +23.7 94 +34 +34 очень
душно
1011.5 1009.3
21 10.09 С 3 7000 м гроза, ливневой дождь {туман} 10/5 480 м
[Cb cap As trans]
+24.0 +23.3 96 +32 +32 очень
душно
1011.7 1009.5 6
00 11.09 С 1 15 км в посл. час дождь {гроза} 9/3 540 м
[Sc diur, vesp Ac As]
+25.6 +23.7 89 +35 +37 очень
душно
1012.4 1010.2 +23.7 7
03 11.09 СЗ 4 18 км мгла {туман} 8/3 540 м
[Sc diur, vesp Ac As]
+28.3 +24.6 80 +40 +45 очень
душно
1012.2 1010.0
06 11.09 СЗ 5 18 км мгла {туман} 9/4 540 м
[Sc diur, vesp Ac As]
+28.9 +24.7 78 +41 +43 опасность
перегрева
1009.4 1007.2
09 11.09 С 3 18 км мгла {туман} 9/4 540 м
[Sc diur, vesp Ac As]
+27.4 +24.5 84 +39 +39 очень
душно
1009.2 1007.0
12 11.09 С 1 16 км мгла {туман} 9/4 540 м
[Sc As trans]
+26.1 +25.3 95 +38 +38 очень
душно
1009.5 1007.3 +30.4 2
15 11.09 В 1 16 км мгла {туман} 10/8 540 м
[Sc As trans]
+26.1 +25.0 94 +37 +37 очень
душно
1010.8 1008.6
18 11.09 С 1 16 км мгла {туман} 9/4 540 м
[Sc As trans]
+26.1 +25.3 95 +38 +38 очень
душно
1009.5 1007.3 +30.4 2
21 11.09 В 1 16 км мгла {туман} 4/1 540 м
[Cu hum Ac As]
+25.1 +24.6 97 +35 +35 очень
душно
1006.8 1004.6
00 12.09 В 2 10 км мгла {туман} 9/1 540 м
[Cu hum Ac trans Cc]
+26.4 +24.5 89 +37 +40 очень
душно
1008.1 1005.9 +24.8 2
03 12.09 С 1 9000 м мгла {туман} 10/3 540 м
[Sc As op]
+27.5 +25.4 88 +40 +43 очень
душно
1008.2 1006.0
06 12.09 В 2 9000 м слаб. дождь {туман} 10/5 540 м
[Sc As op]
+26.2 +25.0 93 +37 +39 очень
душно
1006.5 1004.3 2
09 12.09 Ю 4 15 км мгла {дождь, туман} 9/3 540 м
[Sc diur, vesp Ac As]
+26.5 +25.3 93 +38 +39 очень
душно
1005.0 1002.8 0.0
12 12.09 ЮВ 2 10 км мгла {дождь, туман} 10/4 540 м
[Sc As trans]
+25.3 +24.8 97 +36 +36 очень
душно
1005.6 1003.4 +27.5 0.0
15 12.09 СВ 3 10 км мгла {туман} 10/3 540 м
[Sc As trans]
+24.5 +23.8 96 +33 +33 очень
душно
1006.2 1004.0
18 12.09 ЮВ 1 10 км мгла {туман} 10/3 540 м
[Sc As trans]
+24.1 +23.6 97 +33 +33 очень
душно
1005.0 1002.8
21 12.09 В 2 12 км мгла {туман} 8/3 540 м
[Cu hum Ac As]
+23.9 +23.2 96 +32 +32 очень
душно
1004.9 1002.7
00 13.09 ЮВ 2 20 км мгла {туман} 9/1 540 м
[Cu hum Ac trans Cs]
+26.1 +23.8 87 +36 +38 очень
душно
1006.0 1003.8 +23.5 2
03 13.09 ЮЗ 4 20 км мгла {туман} 9/3 600 м
[Cu hum Ac As Cs]
+28.6 +24.9 80 +41 +46 опасность
перегрева
1006.7 1004.5
06 13.09 ЮЗ 6 20 км мгла {туман} 8/3 600 м
[Cu hum Ac trans Cs]
+29.2 +25.6 81 +43 +46 опасность
перегрева
1004.5 1002.3
09 13.09 ЮЗ 4 20 км мгла {туман} 8/3 600 м
[Cu hum Ac trans Cs]
+28.8 +24.7 79 +41 +42 опасность
перегрева
1005.2 1003.0
12 13.09 Ю 2 15 км мгла {туман} 8/3 600 м
[Cu hum Ac As]
+27.5 +24.4 83 +39 +39 очень
душно
1007.5 1005.3 +30.3
15 13.09 ЮЗ 2 8000 м гроза, ливневой дождь 10/8 480 м
[Cb cap As op]
+24.9 +24.2 96 +34 +34 очень
душно
1008.9 1006.7 22
18 13.09 В 2 12 км мгла {гроза} 9/3 540 м
[Cu hum Ac trans]
+24.7 +24.2 97 +34 +34 очень
душно
1007.1 1004.9 24
21 13.09 В 2 15 км мгла {туман} 9/3 540 м
[Cu hum Ac trans]
+24.6 +24.1 97 +34 +34 очень
душно
1007.4 1005.2
00 14.09 ЮВ 1 18 км мгла {туман} 9/4 540 м
[Cu hum Ac trans Ci fib]
+26.9 +24.6 87 +38 +40 очень
душно
1008.5 1006.3 +24.3 24
03 14.09 ЮЗ 6 20 км мгла {туман} 8/3 600 м
[Cu hum Ac As Cs]
+28.8 +25.8 84 +43 +46 опасность
перегрева
1008.6 1006.4
06 14.09 ЮЗ 6 20 км мгла {туман} 8/5 600 м
[Cu hum Ac trans Cs]
+29.6 +25.8 80 +44 +46 опасность
перегрева
1007.3 1005.1
09 14.09 ЮЗ 2 18 км мгла {туман} 9/4 540 м
[Sc diur, vesp Ac As Cs]
+27.7 +24.6 83 +39 +40 очень
душно
1008.1 1005.9
12 14.09 Ю 2 15 км мгла {туман} 8/3 540 м
[Sc diur, vesp Ac As Cs]
+26.6 +24.9 90 +38 +38 очень
душно
1009.7 1007.5 +30.2 2
15 14.09 Ю 3 9000 м слаб. ливневой дождь {туман} 10/4 480 м
[Sc Ac As]
+25.2 +24.4 95 +35 +35 очень
душно
1010.2 1008.0 4
18 14.09 В 2 9000 м слаб. ливневой дождь {туман} 10/4 540 м
[Sc As trans]
+24.8 +24.3 97 +34 +34 очень
душно
1008.9 1006.7 8
21 14.09 В 2 9000 м слаб. дождь {туман} 10/5 540 м
[Sc As trans]
+24.6 +24.2 98 +34 +34 очень
душно
1008.4 1006.2 18
00 15.09 Ю 2 8000 м слаб. дождь 10/5 540 м
[Sc As trans]
+26.1 +24.9 93 +37 +38 очень
душно
1009.9 1007.7 +24.4 34
03 15.09 ЮЗ 2 10 км слаб. ливневой дождь {туман} 10/3 540 м
[Sc As trans]
+27.3 +24.6 85 +39 +44 очень
душно
1009.3 1007.1 0.0
06 15.09 ЮЗ 5 9000 м слаб. дождь {туман} 10/4 540 м
[Sc As trans]
+26.4 +25.4 94 +38 +40 очень
душно
1006.6 1004.4 6
09 15.09 З 5 7000 м слаб. дождь 10/5 480 м
[Sc As trans]
+26.8 +25.2 91 +39 +39 очень
душно
1006.8 1004.6 4
12 15.09 ЮЗ 5
{11}
9000 м слаб. дождь {туман} 10/4 540 м
[Sc As trans]
+27.2 +25.0 88 +39 +39 очень
душно
1008.0 1005.8 +27.3 11
15 15.09 ЮЗ 3
{17}
10 км в посл. час дождь 9/5 540 м
[Sc diur, vesp Ac As]
+26.8 +24.8 89 +38 +38 очень
душно
1008.5 1006.3 4
18 15.09 З 3
{9}
8000 м слаб. ливневой дождь {туман} 10/4 540 м
[Sc As trans]
+25.8 +24.2 91 +36 +36 очень
душно
1007.7 1005.5 13
21 15.09 СЗ 2
{10}
6000 м дождь {ливн. осадки} 10/4 480 м
[Sc As trans]
+25.2 +24.6 96 +35 +35 очень
душно
1007.5 1005.3 19
00 16.09 Ю 2 7000 м ливневой дождь {туман} 10/6 480 м
[Sc As op]
+25.3 +24.6 96 +36 +36 очень
душно
1008.5 1006.3 +24.7 57
03 16.09 Ю 3 10 км мгла {туман} 9/3 540 м
[Sc diur, vesp Ac As]
+27.3 +24.8 86 +39 +43 очень
душно
1008.0 1005.8 5
06 16.09 ЮЗ 3 12 км осадки на расстоянии {ливн. осадки, туман} 9/5 540 м
[Sc Ac As]
+27.6 +25.0 86 +40 +43 очень
душно
1005.6 1003.4 5
09 16.09 ЮЗ 3 7000 м слаб. ливневой дождь {туман} 10/5 540 м
[Sc As op]
+24.7 +23.9 95 +34 +34 очень
душно
1005.5 1003.3 8
12 16.09 ЮВ 1 2000 м сильн. дождь {ливн. осадки, туман} 10/6 480 м
[Sc As op]
+24.5 +24.1 98 +34 +34 очень
душно
1006.9 1004.7 +29.1 50
15 16.09 В 2 9000 м слаб. дождь 10/5 480 м
[Sc As op]
+24.6 +24.1 97 +34 +34 очень
душно
1007.5 1005.3 65
18 16.09 Ю 3 8000 м слаб. дождь 10/5 540 м
[Sc As op]
+25.8 +24.6 93 +36 +36 очень
душно
1006.1 1003.9 79

 

Местоположение метеостанции Куби Пойнт (Филиппины): широта 14.80 долгота 120.26 высота над уровнем моря 14 м.

В архиве по умолчанию представлена погода в Куби Пойнт за последнюю неделю. Архивные данные за месяц целиком и за предыдущие месяцы, начиная с января 2011 года, Вы можете получить, выбрав интересующий диапазон дат из раскрывающегося списка и нажав кнопку "Ввод!".


*Определитесь, кто Вы:
робот инопланетянин человек

Внимание! Время в таблицах - всемирное. Для получения местного времени необходимо прибавить поправку, которая равна 8 ч.

Смотрите также архив погоды в соседних городах и на ближайших метеорологических станциях:

Погода на Базе ВВС Clark (Филиппины) (52 км)
Погода в Ибе (Филиппины) (67 км)
Погода в Сангли Пойнт (Филиппины) (77 км)
Погода в Маниле (Филиппины) (81 км)
Погода в Научном саду (Филиппины) (83 км)
Погода в Аэропорту Ninoy Aquino (Филиппины) (86 км)
Погода в Кабанатуане (Филиппины) (107 км)
Погода на Амбулонге (Филиппины) (117 км)
Погода в Танае (Филиппины) (122 км)
Погода в Дагупане (Филиппины) (139 км)

Пояснения к столбцам:

Ветер - указаны скорость ветра в м/с - средняя за 10 мин, порывы в срок и между сроками (в фигурных скобках) и направление, откуда дует ветер: С - северный, СВ - северо-восточный, В - восточный, ЮВ - юго-восточный, Ю - южный, ЮЗ - юго-западный, З - западный, СЗ - северо-западный.
Видимость - горизонтальная дальность видимости в метрах или километрах. При видимости от 1 до 10 км при отсутствии осадков обычно наблюдается дымка, при ухудшении видимости до 1 км и менее - туман. В сухую погоду видимость может ухудшаться дымом, пылью или мглою.
Явления - указаны атмосферные явления, наблюдавшиеся в срок или в последний час перед сроком; фигурными скобками обозначены явления, наблюдавшиеся между сроками (за 1-3 часа до срока); квадратными скобками обозначены град или гололедные отложения с указанием их диаметра в мм.
Облачность - указаны через наклонную черту общая и нижняя облачность в баллах и высота нижней границы облаков в метрах; квадратными скобками обозначены формы облаков: Ci - перистые, Cs - перисто-слоистые, Cc - перисто-кучевые, Ac - высококучевые, As - высокослоистые, Sc - слоисто-кучевые, Ns - слоисто-дождевые, Cu - кучевые, Cb - кучево-дождевые. Подробнее классификацию облаков см. в Атласе облаков (PDF).
T - Температура воздуха - температура, измеренная на высоте 2 м над землей.
Td - Температура точки росы - температура, при понижении до которой содержащийся в воздухе водяной пар достигнет насыщения.
f - Относительная влажность воздуха - влажноcть воздуха, измеренная на высоте 2 м над землей.
Te - Эффективная температура - температура, которую ощущает одетый по сезону человек в тени. Характеристика душности погоды. При расчете учитывается влияние влажности воздуха и скорости ветра на теплоощущения человека.
Tes - Эффективная температура на солнце - температура, которую ощущает человек, с поправкой на солнечный нагрев. Характеристика знойности погоды. Зависит от высоты солнца над горизонтом, облачности и скорости ветра. Ночью, в пасмурную погоду, а также при ветре 12 м/с и более поправка равна нулю.
P - Атмосферное давление - приведенное к уровню моря атмосферное давление.
Po - Атмосферное давление - измеренное на уровне метеостанции атмосферное давление.
Tmin - Минимальная температура - минимум температуры воздуха на высоте 2 м над землей.
Tmax - Максимальная температура - максимум температуры воздуха на высоте 2 м над землей.
R - Количество осадков - Количество выпавших осадков за период времени, мм. При наведении курсора мыши на число - период времени, за который выпало указанное количество осадков.
R24 - Количество осадков - Количество выпавших осадков за 24 часа, мм.
S - Снежный покров - Высота снежного покрова, см. При наведении курсора мыши на число - состояние снежного покрова и степень покрытия местности в баллах.